Simultaneous Nadir Overpasses (SNOs) Predictions

Prediction of SNOs between GOES-16 and AQUA Satellite Orbit:

Table of predicted SNOs for the next 14.0 days since TLE Epoch: 2/23/2018
Index Date Time (GOES-16) GOES-16 Lat,Lon AQUA Lat,Lon Distance(km) Time Diff (sec)
1 02/24/2018 06:38:54 -0.01, -75.19 0.04, -75.34 17.73 80
2 02/26/2018 06:24:04 -0.02, -75.21 -0.60, -72.39 320.59 80
3 02/26/2018 18:45:29 0.02, -75.22 -0.49, -77.58 268.53 80
4 02/28/2018 18:35:59 0.02, -75.25 0.16, -74.63 70.65 80
5 03/02/2018 18:23:49 0.02, -75.28 0.82, -71.68 410.80 80
6 03/03/2018 06:45:03 -0.02, -75.29 0.32, -76.83 174.76 80
7 03/05/2018 06:30:13 -0.02, -75.33 -0.34, -73.87 166.30 80
8 03/05/2018 18:51:37 0.02, -75.35 -0.80, -79.06 422.42 80
9 03/07/2018 18:39:27 0.02, -75.40 -0.13, -76.11 80.58 80




NCC Satellite Simultaneous Nadir Overpasses (SNOs) Prediction Service
